Bedford, Massachusetts, United States (01730)
Lat: 42.49N, Lon: 71.28W
Wx Zone: MAZ005
Local Info
Past Weather Observations for Wednesday, July 23, 2014

NOTE: This archive is for the closest National Weather Service station to Bedford. Information may differ from the station used for current weather conditions.

Click here for Long-term Archive

Time Weather Temperature Dewpoint Humidity Pressure Winds Precip Visibility
23:56
Partly Cloudy
70°F / 21°C 70°F / 21°C 100% 29.74 in
(1007 mb)
SSW 3.5 mph
(SSW 6 kph)
0.00 in
(0.00 mm)
10SM
22:56
Partly Cloudy
72°F / 22°C 68°F / 20°C 88% 29.77 in
(1008 mb)
Calm 0.00 in
(0.00 mm)
10SM
21:56
Partly Cloudy
75°F / 24°C 66°F / 19°C 74% 29.8 in
(1009 mb)
NW 8.1 mph
(NW 13 kph)
- 10SM
20:56
Mostly Cloudy
79°F / 26°C 72°F / 22°C 79% 29.8 in
(1009 mb)
SW 10.4 mph
(SW 17 kph)
- 10SM
19:56
Clear
79°F / 26°C 72°F / 22°C 79% 29.77 in
(1008 mb)
SW 11.5 mph
(SW 19 kph)
- 10SM
18:56
Clear
81°F / 27°C 72°F / 22°C 74% 29.74 in
(1007 mb)
SSE 15 mph
(SSE 24 kph)
- 10SM
17:56
Partly Cloudy
82°F / 28°C 72°F / 22°C 70% 29.74 in
(1007 mb)
SSE 11.5 mph
(SSE 19 kph)
- 10SM
16:56
Mostly Cloudy
88°F / 31°C 73°F / 23°C 62% 29.74 in
(1007 mb)
SW 11.5 mph
(SW 19 kph)
- 10SM
15:56
Mostly Cloudy
88°F / 31°C 72°F / 22°C 59% 29.74 in
(1007 mb)
SW 18.4 mph
(SW 30 kph)
- 10SM
14:56
Mostly Cloudy
90°F / 32°C 72°F / 22°C 55% 29.74 in
(1007 mb)
SW 12.7 mph
(SW 20 kph)
- 10SM
13:56
Clear
90°F / 32°C 70°F / 21°C 52% 29.77 in
(1008 mb)
SW 15 mph
(SW 24 kph)
- 10SM
12:56
Partly Cloudy
90°F / 32°C 72°F / 22°C 55% 29.8 in
(1009 mb)
SSE 10.4 mph
(SSE 17 kph)
- 10SM
11:56
Partly Cloudy
88°F / 31°C 72°F / 22°C 59% 29.83 in
(1010 mb)
SSE 12.7 mph
(SSE 20 kph)
- 10SM
10:56
Partly Cloudy
86°F / 30°C 72°F / 22°C 62% 29.83 in
(1010 mb)
SW 10.4 mph
(SW 17 kph)
- 10SM
09:56
Clear
84°F / 29°C 72°F / 22°C 66% 29.89 in
(1012 mb)
SW 10.4 mph
(SW 17 kph)
- 10SM
08:56
Clear
81°F / 27°C 72°F / 22°C 74% 29.89 in
(1012 mb)
SW 10.4 mph
(SW 17 kph)
- 10SM
07:56
Partly Cloudy
79°F / 26°C 70°F / 21°C 74% 29.92 in
(1013 mb)
SW 9.2 mph
(SW 15 kph)
- 10SM
06:56
Partly Cloudy
75°F / 24°C 68°F / 20°C 78% 29.92 in
(1013 mb)
SW 8.1 mph
(SW 13 kph)
- 10SM
05:56
Clear
72°F / 22°C 66°F / 19°C 83% 29.92 in
(1013 mb)
SW 8.1 mph
(SW 13 kph)
- 10SM
04:56
Clear
70°F / 21°C 66°F / 19°C 88% 29.92 in
(1013 mb)
SW 5.8 mph
(SW 9 kph)
- 10SM
03:56
Clear
70°F / 21°C 66°F / 19°C 88% 29.95 in
(1014 mb)
SW 6.9 mph
(SW 11 kph)
- 10SM
02:56
Clear
70°F / 21°C 66°F / 19°C 88% 29.95 in
(1014 mb)
SW 6.9 mph
(SW 11 kph)
- 10SM
01:56
Clear
70°F / 21°C 66°F / 19°C 88% 29.95 in
(1014 mb)
SW 6.9 mph
(SW 11 kph)
- 10SM
00:56
Clear
72°F / 22°C 66°F / 19°C 83% 29.95 in
(1014 mb)
SW 8.1 mph
(SW 13 kph)
- 10SM
Time Weather Temperature Dewpoint Humidity Pressure Winds Precip Visibility


Weather for websites

WeatherForYou.com, LLC is not responsible for any damages or problems caused by this service. Current weather conditions are obtained from the closest station including government and personal stations which may have varying degrees of accuracy. Weather forecasts are derived from the NOAA NDFD. Like all things, this site belongs to Jesus Christ... He just trusts me to maintain it. If you have any questions or comments email webmaster@weatherforyou.com

Copyright © 2014, WeatherForYou.com LLC. All rights reserved.